When you browse on this site, cookies collect data to enhance your experience and personalize the content and advertising you see.
Visit our Privacy Policy to learn more. By continuing to use the site, you agree to this use of cookies and data.
  • In Österreich
  • Länderverzeichnis
  • Für 7 Tage
  • Wassertemperatur
  • Wetterkarte
  • News
  • Widgets
  • user-avatar
    Anmelden

    Stündliche Wetter Pernik

    Heute, 16 Oktober, Mittwoch

    Zeit Temperatur Niederschläge Wind Luftdruck Luftfeuchtigkeit
    00:00 +12°C° 0 mm 0 m/S 692 mmHg 54%
    01:00 +12°C° 0 mm 0 m/S 692 mmHg 55%
    02:00 +13°C° 0 mm 1 m/S 692 mmHg 58%
    03:00 +12°C° 0 mm 1 m/S 692 mmHg 59%
    04:00 +11°C° 0 mm 0 m/S 691 mmHg 60%
    05:00 +10°C° 0 mm 0 m/S 691 mmHg 61%
    06:00 +11°C° 0 mm 0 m/S 691 mmHg 58%
    07:00 +12°C° 0 mm 0 m/S 692 mmHg 56%
    08:00 +13°C° 0 mm 0 m/S 692 mmHg 49%
    09:00 +16°C° 0 mm 0 m/S 693 mmHg 44%
    10:00 +20°C° 0 mm 1 m/S 693 mmHg 38%
    11:00 +22°C° 0 mm 1 m/S 694 mmHg 32%
    12:00 +23°C° 0 mm 1 m/S 693 mmHg 29%
    13:00 +24°C° 0 mm 1 m/S 693 mmHg 26%
    14:00 +25°C° 0 mm 1 m/S 693 mmHg 23%
    15:00 +24°C° 0 mm 1 m/S 693 mmHg 26%
    16:00 +23°C° 0 mm 1 m/S 693 mmHg 30%
    17:00 +22°C° 0 mm 1 m/S 692 mmHg 33%
    18:00 +20°C° 0 mm 1 m/S 692 mmHg 37%
    19:00 +18°C° 0 mm 1 m/S 692 mmHg 41%
    20:00 +15°C° 0 mm 1 m/S 692 mmHg 44%
    21:00 +15°C° 0 mm 1 m/S 692 mmHg 47%
    22:00 +13°C° 0 mm 0 m/S 692 mmHg 49%
    23:00 +13°C° 0 mm 0 m/S 692 mmHg 52%

    Morgen, 17 Oktober, Donnerstag

    Zeit Temperatur Niederschläge Wind Luftdruck Luftfeuchtigkeit
    00:00 +12°C° 0 mm 0 m/S 692 mmHg 53%
    01:00 +12°C° 0 mm 0 m/S 692 mmHg 55%
    02:00 +11°C° 0 mm 0 m/S 692 mmHg 56%
    03:00 +11°C° 0 mm 0 m/S 692 mmHg 57%
    04:00 +11°C° 0 mm 0 m/S 692 mmHg 58%
    05:00 +10°C° 0 mm 0 m/S 692 mmHg 59%
    06:00 +11°C° 0 mm 0 m/S 692 mmHg 57%
    07:00 +12°C° 0 mm 0 m/S 692 mmHg 55%
    08:00 +13°C° 0 mm 0 m/S 693 mmHg 54%
    09:00 +16°C° 0 mm 0 m/S 693 mmHg 47%
    10:00 +18°C° 0 mm 0 m/S 694 mmHg 41%
    11:00 +20°C° 0 mm 0 m/S 694 mmHg 34%
    12:00 +21°C° 0 mm 0 m/S 694 mmHg 31%
    13:00 +24°C° 0 mm 1 m/S 694 mmHg 29%
    14:00 +25°C° 0 mm 1 m/S 694 mmHg 26%
    15:00 +24°C° 0 mm 1 m/S 693 mmHg 30%
    16:00 +21°C° 0 mm 0 m/S 693 mmHg 33%
    17:00 +20°C° 0 mm 0 m/S 693 mmHg 36%
    18:00 +20°C° 0 mm 1 m/S 693 mmHg 39%
    19:00 +18°C° 0 mm 1 m/S 693 mmHg 43%
    20:00 +16°C° 0 mm 1 m/S 693 mmHg 47%
    21:00 +15°C° 0 mm 1 m/S 693 mmHg 49%
    22:00 +14°C° 0 mm 0 m/S 693 mmHg 50%
    23:00 +13°C° 0 mm 0 m/S 693 mmHg 52%

    übermorgen, 18 Oktober, Freitag

    Zeit Temperatur Niederschläge Wind Luftdruck Luftfeuchtigkeit
    00:00 +13°C° 0 mm 0 m/S 693 mmHg 54%
    01:00 +12°C° 0 mm 0 m/S 693 mmHg 55%
    02:00 +12°C° 0 mm 0 m/S 693 mmHg 56%
    03:00 +12°C° 0 mm 0 m/S 692 mmHg 57%
    04:00 +11°C° 0 mm 0 m/S 692 mmHg 58%
    05:00 +11°C° 0 mm 0 m/S 692 mmHg 59%
    06:00 +12°C° 0 mm 0 m/S 693 mmHg 57%
    07:00 +13°C° 0 mm 0 m/S 693 mmHg 56%
    08:00 +13°C° 0 mm 0 m/S 693 mmHg 54%
    09:00 +16°C° 0 mm 0 m/S 693 mmHg 48%
    10:00 +18°C° 0 mm 0 m/S 694 mmHg 42%
    11:00 +22°C° 0 mm 1 m/S 694 mmHg 35%
    12:00 +23°C° 0 mm 1 m/S 694 mmHg 33%
    13:00 +24°C° 0 mm 1 m/S 694 mmHg 31%
    14:00 +25°C° 0 mm 1 m/S 693 mmHg 29%
    15:00 +24°C° 0 mm 1 m/S 693 mmHg 33%
    16:00 +23°C° 0 mm 1 m/S 693 mmHg 36%
    17:00 +22°C° 0 mm 1 m/S 692 mmHg 39%
    18:00 +20°C° 0 mm 1 m/S 692 mmHg 43%
    19:00 +19°C° 0 mm 1 m/S 692 mmHg 47%
    20:00 +16°C° 0 mm 1 m/S 692 mmHg 51%
    21:00 +15°C° 0 mm 1 m/S 692 mmHg 53%
    22:00 +15°C° 0 mm 1 m/S 692 mmHg 55%
    23:00 +13°C° 0 mm 0 m/S 692 mmHg 57%

    19 Oktober, Samstag

    Zeit Temperatur Niederschläge Wind Luftdruck Luftfeuchtigkeit
    00:00 +13°C° 0 mm 0 m/S 692 mmHg 59%
    01:00 +13°C° 0 mm 0 m/S 692 mmHg 60%
    02:00 +12°C° 0 mm 0 m/S 692 mmHg 62%
    03:00 +12°C° 0 mm 0 m/S 692 mmHg 63%
    04:00 +12°C° 0 mm 0 m/S 692 mmHg 65%
    05:00 +11°C° 0 mm 0 m/S 692 mmHg 67%
    06:00 +12°C° 0 mm 0 m/S 692 mmHg 65%
    07:00 +13°C° 0 mm 0 m/S 693 mmHg 63%
    08:00 +14°C° 0 mm 0 m/S 693 mmHg 62%
    09:00 +16°C° 0 mm 0 m/S 693 mmHg 55%
    10:00 +20°C° 0 mm 1 m/S 694 mmHg 48%
    11:00 +22°C° 0 mm 1 m/S 694 mmHg 42%
    12:00 +23°C° 0 mm 1 m/S 694 mmHg 39%
    13:00 +24°C° 0 mm 1 m/S 694 mmHg 36%
    14:00 +25°C° 0 mm 1 m/S 694 mmHg 33%
    15:00 +24°C° 0 mm 1 m/S 693 mmHg 36%
    16:00 +23°C° 0 mm 1 m/S 693 mmHg 39%
    17:00 +22°C° 0 mm 1 m/S 693 mmHg 43%
    18:00 +21°C° 0 mm 1 m/S 693 mmHg 47%
    19:00 +19°C° 0 mm 1 m/S 693 mmHg 52%
    20:00 +16°C° 0 mm 1 m/S 693 mmHg 57%
    21:00 +16°C° 0 mm 1 m/S 693 mmHg 59%
    22:00 +15°C° 0 mm 1 m/S 693 mmHg 61%
    23:00 +15°C° 0 mm 1 m/S 693 mmHg 63%

    20 Oktober, Sonntag

    Zeit Temperatur Niederschläge Wind Luftdruck Luftfeuchtigkeit
    00:00 +13°C° 0 mm 0 m/S 693 mmHg 65%
    01:00 +13°C° 0 mm 0 m/S 693 mmHg 67%
    02:00 +12°C° 0 mm 0 m/S 693 mmHg 68%
    03:00 +12°C° 0 mm 0 m/S 693 mmHg 70%
    04:00 +12°C° 0 mm 0 m/S 693 mmHg 71%
    05:00 +11°C° 0 mm 0 m/S 693 mmHg 73%
    06:00 +12°C° 0 mm 0 m/S 693 mmHg 70%
    07:00 +13°C° 0 mm 0 m/S 694 mmHg 68%
    08:00 +14°C° 0 mm 0 m/S 694 mmHg 66%
    09:00 +18°C° 0 mm 1 m/S 694 mmHg 58%
    10:00 +20°C° 0 mm 1 m/S 695 mmHg 51%
    11:00 +22°C° 0 mm 1 m/S 695 mmHg 43%
    12:00 +23°C° 0 mm 1 m/S 695 mmHg 40%
    13:00 +24°C° 0 mm 1 m/S 695 mmHg 36%
    14:00 +25°C° 0 mm 2 m/S 695 mmHg 33%
    15:00 +24°C° 0 mm 1 m/S 695 mmHg 36%
    16:00 +23°C° 0 mm 1 m/S 694 mmHg 39%
    17:00 +22°C° 0 mm 1 m/S 694 mmHg 42%
    18:00 +21°C° 0 mm 1 m/S 694 mmHg 46%
    19:00 +19°C° 0 mm 1 m/S 694 mmHg 51%
    20:00 +16°C° 0 mm 1 m/S 694 mmHg 55%
    21:00 +16°C° 0 mm 1 m/S 694 mmHg 58%
    22:00 +15°C° 0 mm 1 m/S 695 mmHg 60%
    23:00 +14°C° 0 mm 0 m/S 695 mmHg 62%

    21 Oktober, Montag

    Zeit Temperatur Niederschläge Wind Luftdruck Luftfeuchtigkeit
    00:00 +13°C° 0 mm 0 m/S 695 mmHg 64%
    01:00 +13°C° 0 mm 0 m/S 694 mmHg 66%
    02:00 +12°C° 0 mm 0 m/S 694 mmHg 67%
    03:00 +12°C° 0 mm 0 m/S 694 mmHg 69%
    04:00 +12°C° 0 mm 0 m/S 694 mmHg 70%
    05:00 +11°C° 0 mm 0 m/S 694 mmHg 71%
    06:00 +12°C° 0 mm 0 m/S 695 mmHg 69%
    07:00 +13°C° 0 mm 0 m/S 695 mmHg 66%
    08:00 +14°C° 0 mm 0 m/S 695 mmHg 64%
    09:00 +16°C° 0 mm 0 m/S 696 mmHg 57%
    10:00 +18°C° 0 mm 0 m/S 696 mmHg 49%
    11:00 +23°C° 0 mm 1 m/S 697 mmHg 42%
    12:00 +24°C° 0 mm 1 m/S 697 mmHg 39%
    13:00 +24°C° 0 mm 1 m/S 696 mmHg 36%
    14:00 +25°C° 0 mm 1 m/S 696 mmHg 33%
    15:00 +24°C° 0 mm 2 m/S 696 mmHg 36%
    16:00 +23°C° 0 mm 2 m/S 696 mmHg 39%
    17:00 +21°C° 0 mm 2 m/S 695 mmHg 42%
    18:00 +19°C° 0 mm 2 m/S 695 mmHg 48%
    19:00 +18°C° 0 mm 1 m/S 695 mmHg 53%
    20:00 +16°C° 0 mm 1 m/S 695 mmHg 58%
    21:00 +15°C° 0 mm 1 m/S 695 mmHg 60%
    22:00 +15°C° 0 mm 1 m/S 695 mmHg 62%
    23:00 +14°C° 0 mm 1 m/S 695 mmHg 63%
    Mehr zeigen